Location: Nantong Television Tower
(32.0188°N, 120.8512°E)
Time: 08:26:17
(UTC+08:00)

Vanguard 3 - Visible Passes

Search period start: 27 February 2015 00:00
Search period end: 09 March 2015 00:00
Orbit: 510 x 3273 km, 33.3° (Epoch: 23 February)

Date Brightness Start Highest point End Pass type
(mag) Time Alt. Az. Time Alt. Az. Time Alt. Az.
01 Mar 10.2 05:37:56 10° S 05:40:19 12° SSE 05:42:36 10° SE visible
03 Mar 9.9 05:22:13 10° SSW 05:27:51 18° SSE 05:32:06 10° ESE visible
04 Mar 10.5 04:10:53 10° S 04:14:38 13° SSE 04:18:09 10° SE visible
05 Mar 9.6 05:07:22 10° SSW 05:15:18 26° SSE 05:20:36 10° ESE visible
06 Mar 10.3 03:54:36 10° SSW 04:02:01 19° SSE 04:07:40 10° ESE visible
07 Mar 10.8 02:45:37 12° SSE 02:48:10 13° SSE 02:52:45 10° SE visible
07 Mar 9.4 04:52:46 10° SW 05:02:39 34° SSE 05:08:45 10° E visible
08 Mar 10.0 03:42:40 17° SSW 03:49:17 26° SSE 03:56:13 10° ESE visible
08 Mar 8.4 05:52:53 10° SW 06:02:51 57° SSE 06:08:29 10° E visible
